[[{"header":{"parameterUnit":"m.s-1","parameterCategory":1,"la1":30.2991,"la2":30.254,"lo1":-89.0895,"lo2":-89.0444,"dy":0.0017,"dx":0.0017,"nx":28,"ny":28,"refTime":"2024-03-10T21:00:00:Z","depth":0,"parameterNumber":2,"parameterNumberName":"U-component_of_WINDS"},"data":[0,0,0,0,0,0,0,0,0,0,0,0,0,0,0,0,0,0,0,0,0,0,0,0,0,0,0,0,0,0,0,0,0,0,0,0,0,0,0,0,0,0,0,0,0,0,0,0,0,0,0,0,0,0,0,0,0,0,-1.2003,-1.2003,0,-1.1991,-1.1991,-1.1991,-1.1904,-1.1901,-1.1899,-1.1897,-1.1888,-1.189,-1.1892,0,0,0,0,0,0,0,0,0,0,0,0,0,-1.1951,-1.1953,-1.2003,-1.2003,-1.2003,-1.1992,-1.1991,-1.1991,-1.1904,-1.1901,-1.1899,-1.1896,-1.1888,-1.189,-1.1892,0,0,0,0,0,0,0,0,0,0,0,0,0,-1.196,-1.1953,-1.2003,-1.1958,-1.1954,-1.1992,-1.1991,-1.1991,-1.1905,-1.1901,-1.1898,-1.1895,-1.1887,-1.1889,-1.1892,-1.1973,0,0,-1.19,-1.1901,0,0,0,0,0,0,0,0,-1.196,-1.1962,-1.1965,-1.1961,-1.1956,-1.1946,-1.197,-1.1985,-1.1905,-1.1923,-1.1897,-1.1893,-1.191,-1.1911,-1.1916,-1.1973,-1.1973,-1.19,-1.1902,-1.1903,-1.1904,0,0,0,0,0,0,0,-1.1959,-1.1962,-1.1998,-1.1965,-1.196,-1.1939,-1.1936,-1.1972,-1.1935,-1.1921,-1.1915,-1.1915,-1.1907,-1.1913,-1.1915,-1.1972,-1.19,-1.1903,-1.1904,-1.1905,-1.2096,-1.2099,0,0,0,0,0,0,-1.1965,-1.1962,-1.1999,-1.1998,-1.195,-1.1942,-1.194,-1.1952,-1.1934,-1.1928,-1.1918,-1.1911,-1.191,-1.1912,-1.1914,-1.2008,-1.1903,-1.1906,-1.1907,-1.2092,-1.2096,-1.21,0,0,0,0,0,0,-1.1964,-1.1969,-1.1999,-1.1978,-1.1981,-1.1946,-1.1962,-1.1954,-1.196,-1.1931,-1.1925,-1.193,-1.1908,-1.191,-1.1959,-1.2006,-1.1907,-1.1909,-1.2088,-1.2093,-1.2098,-1.2197,0,0,0,0,0,0,-1.1963,-1.1969,-1.1999,-1.198,-1.1982,-1.2044,-1.1964,-1.1956,-1.1964,-1.1955,-1.1942,-1.1936,-1.1905,-1.1956,-1.1962,-1.2008,-1.1911,-1.2084,-1.209,-1.2097,-1.2189,-1.2205,-1.2218,0,0,0,0,0,-1.1961,-1.2028,-1.2001,-1.2006,-1.2019,-1.2047,-1.2048,-1.2011,-1.1969,-1.1999,-1.198,-1.1937,-1.2,-1.1961,-1.1967,-1.2016,-1.2081,-1.2089,-1.2096,-1.2183,-1.2202,-1.2218,0,0,0,0,0,0,-1.2055,-1.2025,-1.1995,-1.2057,-1.2055,-1.2032,-1.2069,-1.2032,-1.2043,-1.2034,-1.1988,-1.1985,-1.2041,-1.2033,-1.199,-1.2093,-1.2033,-1.2042,-1.2096,-1.2114,-1.2128,-1.2129,-1.1914,0,0,0,0,0,-1.2083,-1.2107,-1.208,-1.2138,-1.2138,-1.2104,-1.2115,-1.2086,-1.2082,-1.2082,-1.2067,-1.2066,-1.2085,-1.2099,-1.2116,-1.2187,-1.2183,-1.2223,-1.2238,-1.225,-1.2259,-1.2296,-1.2313,-1.2126,-1.2126,-1.2125,0,0,-1.2141,-1.2127,-1.2146,-1.2156,-1.2151,-1.2178,-1.2104,-1.2136,-1.2156,-1.2087,-1.2131,-1.2121,-1.2116,-1.2177,-1.2203,-1.2172,-1.2309,-1.226,-1.2269,-1.2272,-1.2306,-1.2323,-1.2339,-1.2131,-1.213,-1.2129,0,0,-1.226,-1.2252,-1.2299,-1.2296,-1.2289,-1.2266,-1.2277,-1.226,-1.225,-1.2294,-1.2242,-1.2265,-1.23,-1.2299,-1.2303,-1.2422,-1.2382,-1.2428,-1.2504,-1.2541,-1.2555,-1.2568,-1.2611,-1.2626,-1.2437,-1.2437,-1.2438,0,-1.2334,-1.2371,-1.2329,-1.2363,-1.237,-1.2307,-1.2355,-1.2353,-1.2353,-1.2359,-1.2324,-1.2366,-1.2359,-1.2418,-1.2447,-1.2452,-1.2464,-1.243,-1.2557,-1.2569,-1.2581,-1.262,-1.2637,-1.2443,-1.2442,-1.2442,-1.2441,0,-1.2462,-1.2489,-1.2528,-1.2528,-1.2538,-1.2579,-1.2543,-1.2559,-1.2529,-1.251,-1.2555,-1.2544,-1.2557,-1.2569,-1.2541,-1.2625,-1.2606,-1.2565,-1.2503,-1.2605,-1.2642,-1.2656,-1.2451,-1.2449,-1.2447,-1.2446,0,0,-1.2641,-1.2615,-1.2631,-1.2629,-1.2617,-1.2638,-1.2676,-1.2688,-1.2702,-1.2704,-1.2735,-1.2766,-1.2727,-1.2732,-1.2703,-1.2735,-1.283,-1.269,-1.2689,-1.2716,-1.2922,-1.2953,-1.2971,-1.2803,-1.2806,-1.2808,-1.2922,0,-1.2755,-1.2819,-1.2781,-1.285,-1.2875,-1.2816,-1.2849,-1.2846,-1.2829,-1.2847,-1.2829,-1.2851,-1.2799,-1.2801,-1.283,-1.2812,-1.287,-1.2803,-1.2833,-1.2834,-1.2836,-1.299,-1.3024,-1.3132,-1.2936,-1.2939,-1.294,0,-1.2898,-1.2904,-1.2976,-1.2958,-1.2967,-1.2998,-1.3005,-1.3024,-1.3019,-1.3004,-1.3009,-1.2972,-1.3009,-1.2948,-1.2998,-1.2954,-1.2963,-1.2956,-1.2959,-1.2961,-1.2894,-1.2997,-1.3165,-1.3182,-1.2962,-1.2961,-1.2959,0,-1.3021,-1.3048,-1.3094,-1.3095,-1.3076,-1.3099,-1.3092,-1.3083,-1.3093,-1.3099,-1.3105,-1.3117,-1.3123,-1.3133,-1.31,-1.3059,-1.3155,-1.3092,-1.3145,-1.3146,-1.3168,-1.3167,-1.3341,-1.3174,-1.3174,-1.3174,-1.3173,0,-1.3153,-1.32,-1.3149,-1.3178,-1.3228,-1.3184,-1.3235,-1.3222,-1.3215,-1.324,-1.319,-1.3215,-1.3169,-1.319,-1.3165,-1.321,-1.3214,-1.3203,-1.3196,-1.3208,-1.321,-1.3214,-1.3206,-1.3178,-1.3177,-1.3176,-1.3175,0,-1.33,-1.3268,-1.3314,-1.3292,-1.3287,-1.3325,-1.3306,-1.3332,-1.3311,-1.3344,-1.3349,-1.3317,-1.3338,-1.3306,-1.3324,-1.3307,-1.337,-1.3352,-1.3372,-1.3367,-1.3422,-1.3417,-1.3605,-1.3628,-1.3446,-1.3448,-1.3449,0,-1.3386,-1.342,-1.3401,-1.3414,-1.341,-1.3431,-1.344,-1.3398,-1.341,-1.3406,-1.3433,-1.345,-1.3461,-1.3499,-1.3478,-1.3491,-1.3473,-1.3537,-1.3474,-1.3485,-1.3474,-1.3472,-1.3476,-1.3551,-1.3553,-1.3555,-1.3556,0,-1.3544,-1.3526,-1.354,-1.3549,-1.3561,-1.3566,-1.3568,-1.3582,-1.3538,-1.3553,-1.3574,-1.3583,-1.3601,-1.3619,-1.3627,-1.3621,-1.3582,-1.3576,-1.3589,-1.3602,-1.3612,-1.3608,-1.3408,-1.3572,-1.357,-1.3569,-1.3568,-1.3568,-1.3663,-1.369,-1.3681,-1.3698,-1.3695,-1.3697,-1.372,-1.3702,-1.3718,-1.3729,-1.3704,-1.3731,-1.3725,-1.3731,-1.3729,-1.375,-1.3722,-1.3741,-1.3746,-1.3751,-1.376,-1.3609,-1.3752,-1.3751,-1.3751,-1.375,-1.375,0,-1.3817,-1.3808,-1.3825,-1.3828,-1.3842,-1.3802,-1.3802,-1.3817,-1.3841,-1.3838,-1.385,-1.3874,-1.3891,-1.3871,-1.3884,-1.3905,-1.3888,-1.391,-1.3909,-1.3908,-1.3784,-1.3772,-1.3924,-1.3924,-1.3924,-1.3924,-1.3924,-1.3924,-1.39,-1.3943,-1.3925,-1.3967,-1.3957,-1.3982,-1.3986,-1.3988,-1.3985,-1.4014,-1.4028,-1.4014,-1.4004,-1.4016,-1.403,-1.4024,-1.4031,-1.406,-1.4048,-1.3933,-1.3916,-1.39,-1.3888,-1.4062,-1.4063,-1.4169,-1.417,-1.4171]},{"header":{"parameterUnit":"m.s-1","parameterCategory":1,"la1":30.2991,"la2":30.254,"lo1":-89.0895,"lo2":-89.0444,"dy":0.0017,"dx":0.0017,"nx":28,"ny":28,"refTime":"2024-03-10T21:00:00:Z","depth":0,"parameterNumber":3,"parameterNumberName":"V-component_of_WINDS"},"data":[0,0,0,0,0,0,0,0,0,0,0,0,0,0,0,0,0,0,0,0,0,0,0,0,0,0,0,0,0,0,0,0,0,0,0,0,0,0,0,0,0,0,0,0,0,0,0,0,0,0,0,0,0,0,0,0,0,0,1.6176,1.6176,0,1.6119,1.6118,1.6117,1.6067,1.6067,1.6066,1.6065,1.6002,1.6001,1.6,0,0,0,0,0,0,0,0,0,0,0,0,0,1.624,1.6239,1.6176,1.6176,1.6175,1.6119,1.6118,1.6117,1.6067,1.6066,1.6066,1.6065,1.6003,1.6001,1.6,0,0,0,0,0,0,0,0,0,0,0,0,0,1.62,1.6239,1.6177,1.6143,1.614,1.6119,1.6118,1.6117,1.6067,1.6066,1.6066,1.6065,1.6003,1.6002,1.6,1.6006,0,0,1.5995,1.5994,0,0,0,0,0,0,0,0,1.6202,1.6198,1.6149,1.6146,1.6142,1.6099,1.6117,1.608,1.6068,1.6095,1.6065,1.6064,1.6035,1.6031,1.6022,1.6003,1.6001,1.5994,1.5993,1.5993,1.5992,0,0,0,0,0,0,0,1.6205,1.62,1.6153,1.6148,1.6144,1.613,1.6124,1.611,1.607,1.6092,1.6089,1.6083,1.6033,1.6023,1.602,1.6,1.5995,1.5993,1.5992,1.5991,1.5983,1.5984,0,0,0,0,0,0,1.6214,1.6203,1.6155,1.6152,1.6171,1.613,1.6122,1.6114,1.607,1.6063,1.6083,1.608,1.6027,1.6022,1.6017,1.6021,1.5993,1.5991,1.599,1.5982,1.5983,1.5984,0,0,0,0,0,0,1.6215,1.621,1.6158,1.6176,1.6169,1.613,1.612,1.6113,1.6103,1.6064,1.6056,1.6081,1.6026,1.602,1.601,1.6018,1.599,1.5989,1.5981,1.5982,1.5984,1.603,0,0,0,0,0,0,1.6217,1.6211,1.6214,1.6177,1.6168,1.6152,1.6121,1.6113,1.6101,1.6097,1.606,1.6052,1.6025,1.6012,1.6008,1.6015,1.5987,1.598,1.5982,1.5983,1.6027,1.6032,1.6037,0,0,0,0,0,1.622,1.6228,1.6214,1.6208,1.6171,1.6153,1.6147,1.6116,1.6102,1.6104,1.6078,1.6054,1.6019,1.6012,1.6006,1.6013,1.5979,1.5981,1.5983,1.6025,1.6031,1.6037,0,0,0,0,0,0,1.6265,1.6223,1.6206,1.6203,1.6182,1.6144,1.6145,1.6124,1.6105,1.6102,1.6063,1.6055,1.6049,1.603,1.6024,1.6017,1.5996,1.5996,1.6029,1.6035,1.604,1.6044,1.5986,0,0,0,0,0,1.6276,1.6266,1.6228,1.6229,1.622,1.6185,1.6176,1.6154,1.613,1.612,1.6094,1.607,1.6054,1.6043,1.6026,1.6025,1.6015,1.6027,1.6032,1.6036,1.6036,1.6033,1.6038,1.599,1.599,1.599,0,0,1.6295,1.6271,1.6267,1.6238,1.6219,1.6208,1.6177,1.6167,1.6159,1.6118,1.6107,1.6087,1.6058,1.6052,1.6048,1.6036,1.6048,1.6038,1.6042,1.604,1.6036,1.604,1.6044,1.5991,1.5991,1.5991,0,0,1.6326,1.6307,1.6306,1.6288,1.626,1.6237,1.6237,1.6202,1.6187,1.6176,1.6145,1.6134,1.6107,1.6087,1.6074,1.6098,1.6074,1.6094,1.6118,1.6116,1.6119,1.6123,1.613,1.6133,1.6095,1.6095,1.6095,0,1.6354,1.6338,1.6307,1.6299,1.6287,1.6252,1.6249,1.6233,1.62,1.6192,1.618,1.6145,1.6123,1.6112,1.6118,1.6109,1.6106,1.6097,1.6122,1.6124,1.6127,1.6134,1.6137,1.6098,1.6097,1.6097,1.6097,0,1.6373,1.6363,1.6365,1.6336,1.6324,1.6319,1.6286,1.6277,1.6257,1.6235,1.6223,1.6196,1.6172,1.6168,1.6148,1.6154,1.6147,1.6129,1.6106,1.6134,1.614,1.6142,1.6101,1.61,1.6099,1.6099,0,0,1.643,1.6385,1.6386,1.6372,1.6339,1.633,1.6323,1.6301,1.6294,1.6273,1.6265,1.6244,1.6227,1.6212,1.6189,1.6187,1.6207,1.6168,1.6167,1.6175,1.621,1.6224,1.6227,1.6192,1.6192,1.6192,1.6212,0,1.6454,1.6441,1.6413,1.6408,1.6397,1.6364,1.6357,1.6336,1.6316,1.6302,1.6279,1.6264,1.6243,1.6234,1.6231,1.6205,1.6213,1.6203,1.6182,1.6182,1.6189,1.623,1.6244,1.6264,1.6215,1.6215,1.6215,0,1.648,1.6463,1.6457,1.6425,1.6419,1.6415,1.6392,1.6381,1.6356,1.6341,1.6325,1.63,1.6289,1.627,1.6255,1.6249,1.6239,1.6225,1.6225,1.622,1.6199,1.6225,1.627,1.6273,1.6219,1.6218,1.6218,0,1.6521,1.6496,1.6489,1.6478,1.6441,1.6438,1.6422,1.6396,1.6385,1.6366,1.6358,1.6337,1.6325,1.6309,1.6279,1.6268,1.6266,1.6244,1.6252,1.6253,1.6252,1.6252,1.6294,1.6248,1.6248,1.6248,1.6248,0,1.655,1.6547,1.6506,1.6502,1.6498,1.6466,1.6462,1.6443,1.6421,1.6411,1.6381,1.6372,1.6334,1.632,1.6297,1.6287,1.6282,1.6268,1.6262,1.627,1.6272,1.6262,1.6259,1.6249,1.6248,1.6248,1.6248,0,1.6594,1.6567,1.6557,1.6523,1.6514,1.6512,1.6483,1.6476,1.6455,1.6443,1.6438,1.6404,1.6386,1.6355,1.6329,1.6313,1.6307,1.6297,1.6316,1.6312,1.6321,1.632,1.6357,1.6359,1.6313,1.6314,1.6314,0,1.6614,1.6611,1.6577,1.6569,1.6555,1.6543,1.6531,1.65,1.6489,1.6461,1.6458,1.6438,1.6421,1.6395,1.6366,1.6346,1.6334,1.6348,1.633,1.6339,1.6332,1.6332,1.6331,1.6352,1.6352,1.6353,1.6353,0,1.6651,1.6638,1.6624,1.6605,1.6592,1.6576,1.6557,1.6552,1.6516,1.6505,1.6488,1.6475,1.6449,1.6429,1.6405,1.6387,1.6363,1.636,1.636,1.6368,1.6378,1.6371,1.6326,1.6358,1.6358,1.6357,1.6357,1.6357,1.6682,1.6678,1.6654,1.6639,1.6622,1.6606,1.6598,1.6576,1.6562,1.6539,1.6521,1.6505,1.6479,1.6444,1.6428,1.6414,1.6403,1.6404,1.6404,1.6404,1.6407,1.6382,1.6409,1.6409,1.6409,1.6409,1.6409,0,1.6717,1.67,1.6687,1.6663,1.6651,1.6632,1.6611,1.6601,1.6588,1.6567,1.6551,1.6531,1.6512,1.6483,1.6461,1.6456,1.6445,1.6451,1.645,1.6446,1.6418,1.642,1.6461,1.6461,1.6461,1.6461,1.6461,1.646,1.6734,1.6726,1.671,1.6693,1.6676,1.6661,1.665,1.6634,1.6617,1.6597,1.6581,1.6563,1.6538,1.6515,1.6497,1.6488,1.6481,1.6491,1.6479,1.6453,1.6448,1.6444,1.6445,1.649,1.649,1.6508,1.6508,1.6508]}]]